Retour au catalogue

FREGAT DEB

LostUNKNOWN
NORAD 48856·DEBRIS·🇷🇺 Russia

Lancé Jul 18, 2011 depuis Baikonur Cosmodrome

Loading…

Prochains Passages (prochaines 24 heures)

TLE

PériméSource: Space-Track

Époque: Aug 2, 2021, 19:39 UTC

1 48856U 11037PC  21214.81893571 -.00000040  00000-0  00000-0 0  9990
2 48856  51.5915  18.9322 1148741 183.0748 176.2409  9.65062987  8077

Suivez FREGAT DEB en temps réel avec AllMySat

Download on the App Store